YAMAL 401

Last updated on Sat Sep 05 2026 00:03:04 GMT+0000 (Coordinated Universal Time)

1 40345U 14082A 26247.11471743 -.00000234 00000+0 00000+0 0 9998 2 40345 0.0181 202.0535 0000607 12.5301 259.9124 1.00273081 42718
UTC large
Height (km)
Speed (km/s)
/
Latitude / Longitude
Inclination (degrees)
Orbital Period (minutes)
Azimuth
Elevation
Range (km)
Doppler Factor

Next 0 passes for location: London (51.5072 / 0.1276)

No passes found over London.
YAMAL 401